AA7VG Weather Reports


Display with metric or nautical units.
time (UTC)temp
F
wind
direction
speed
MPH
gust
MPH
rain 1hr
in
rain 24hr
in
rain mn
in
humidity
%
barometer
mb
20260906224731 82 315 2.0 3.0 0.00 0.00 0.00 31 1010.6
20260906224227 82 147 2.0 2.0 0.00 0.00 0.00 32 1010.7
20260906223724 83 202 2.0 4.0 0.00 0.00 0.00 31 1010.6
20260906223219 82 240 1.0 2.0 0.00 0.00 0.00 31 1011.0
20260906222717 81 350 2.0 2.0 0.00 0.00 0.00 33 1011.0
20260906222215 83 277 4.0 7.0 0.00 0.00 0.00 32 1011.0
20260906221714 84 219 3.0 4.0 0.00 0.00 0.00 30 1011.0
20260906221209 83 271 0.0 2.0 0.00 0.00 0.00 32 1011.1
20260906220704 82 312 2.0 4.0 0.00 0.00 0.00 32 1011.1
20260906220159 82 329 3.0 7.0 0.00 0.00 0.00 33 1011.2
20260906215658 82 283 3.0 4.0 0.00 0.00 0.00 33 1011.2
20260906215157 81 299 3.0 3.0 0.00 0.00 0.00 33 1011.2
20260906214655 80 127 1.0 3.0 0.00 0.00 0.00 34 1011.3
20260906214150 80 313 2.0 3.0 0.00 0.00 0.00 33 1011.4
20260906213650 80 311 2.0 2.0 0.00 0.00 0.00 35 1011.7
20260906213144 80 296 1.0 4.0 0.00 0.00 0.00 34 1011.8
20260906212641 79 119 1.0 2.0 0.00 0.00 0.00 35 1011.9
20260906212137 81 7 2.0 4.0 0.00 0.00 0.00 33 1011.7
20260906211637 80 357 1.0 4.0 0.00 0.00 0.00 34 1012.1
20260906211132 79 346 2.0 4.0 0.00 0.00 0.00 35 1012.0
20260906210628 79 77 2.0 3.0 0.00 0.00 0.00 35 1012.2
20260906210122 78 353 2.0 7.0 0.00 0.00 0.00 36 1012.5
20260906205618 78 311 1.0 4.0 0.00 0.00 0.00 37 1012.6
20260906205114 78 330 4.0 6.0 0.00 0.00 0.00 37 1012.3
20260906204613 78 329 0.0 2.0 0.00 0.00 0.00 37 1012.6
20260906204108 78 45 1.0 4.0 0.00 0.00 0.00 38 1013.0
20260906203608 77 297 3.0 4.0 0.00 0.00 0.00 39 1012.9
20260906203103 77 327 3.0 7.0 0.00 0.00 0.00 39 1012.9
20260906202600 77 320 5.0 8.0 0.00 0.00 0.00 40 1012.8
20260906202059 78 284 1.0 4.0 0.00 0.00 0.00 39 1013.0
20260906201600 78 314 3.0 6.0 0.00 0.00 0.00 38 1013.5
20260906201059 76 318 2.0 2.0 0.00 0.00 0.00 41 1013.4
20260906200555 76 350 2.0 4.0 0.00 0.00 0.00 41 1013.4
20260906200051 76 35 3.0 6.0 0.00 0.00 0.00 41 1013.3
20260906195546 77 325 3.0 4.0 0.00 0.00 0.00 40 1013.8
20260906195043 76 164 0.0 3.0 0.00 0.00 0.00 41 1013.5
20260906194538 77 287 2.0 6.0 0.00 0.00 0.00 39 1013.5
20260906194034 76 344 2.0 4.0 0.00 0.00 0.00 39 1013.6
20260906193533 74 299 2.0 6.0 0.00 0.00 0.00 41 1014.0
20260906193029 74 291 2.0 3.0 0.00 0.00 0.00 44 1013.9
20260906192524 74 188 3.0 3.0 0.00 0.00 0.00 44 1013.8
20260906192023 75 204 2.0 2.0 0.00 0.00 0.00 42 1014.2
20260906191519 74 311 1.0 2.0 0.00 0.00 0.00 42 1014.2
20260906191017 74 327 2.0 4.0 0.00 0.00 0.00 43 1014.3
20260906190517 73 308 2.0 2.0 0.00 0.00 0.00 45 1014.3
20260906190012 75 312 1.0 2.0 0.00 0.00 0.00 43 1014.5
20260906185511 75 300 1.0 3.0 0.00 0.00 0.00 42 1014.8
20260906185010 75 134 1.0 2.0 0.00 0.00 0.00 43 1014.5
20260906184505 73 196 1.0 1.0 0.00 0.00 0.00 44 1014.8
20260906184001 73 251 1.0 2.0 0.00 0.00 0.00 44 1015.0
20260906183457 71 291 0.0 3.0 0.00 0.00 0.00 47 1015.0
20260906182952 71 264 1.0 3.0 0.00 0.00 0.00 48 1015.2
20260906182447 73 150 2.0 4.0 0.00 0.00 0.00 45 1015.3
20260906181943 71 284 0.0 3.0 0.00 0.00 0.00 46 1015.2
20260906181439 71 333 2.0 4.0 0.00 0.00 0.00 47 1015.4
20260906180934 71 317 2.0 4.0 0.00 0.00 0.00 47 1015.5
20260906180429 72 305 2.0 4.0 0.00 0.00 0.00 46 1015.6
20260906175927 71 239 0.0 2.0 0.00 0.00 0.00 48 1015.8
20260906175422 70 298 3.0 4.0 0.00 0.00 0.00 49 1016.0
20260906174920 70 304 3.0 4.0 0.00 0.00 0.00 48 1016.0
20260906174420 68 347 3.0 4.0 0.00 0.00 0.00 50 1016.1
20260906173915 67 286 2.0 6.0 0.00 0.00 0.00 53 1016.2
20260906173410 69 284 2.0 6.0 0.00 0.00 0.00 51 1016.3
20260906172909 68 297 3.0 3.0 0.00 0.00 0.00 51 1016.3
20260906172406 67 274 4.0 4.0 0.00 0.00 0.00 53 1016.6
20260906171901 67 261 1.0 6.0 0.00 0.00 0.00 53 1016.7
20260906171355 67 224 1.0 4.0 0.00 0.00 0.00 54 1016.8
20260906170851 67 198 0.0 2.0 0.00 0.00 0.00 52 1016.8
20260906170347 67 151 2.0 3.0 0.00 0.00 0.00 54 1017.1
20260906165844 66 251 1.0 6.0 0.00 0.00 0.00 55 1016.9
20260906165342 65 254 1.0 3.0 0.00 0.00 0.00 57 1017.2
20260906164838 64 309 3.0 4.0 0.00 0.00 0.00 58 1017.0
20260906164337 65 272 1.0 4.0 0.00 0.00 0.00 57 1017.1
20260906163833 66 155 2.0 4.0 0.00 0.00 0.00 57 1017.2
20260906163329 65 236 2.0 3.0 0.00 0.00 0.00 57 1017.5
20260906162826 64 168 2.0 3.0 0.00 0.00 0.00 60 1017.5
20260906162325 63 286 1.0 4.0 0.00 0.00 0.00 61 1017.4
20260906161821 65 300 5.0 6.0 0.00 0.00 0.00 56 1017.7
20260906161320 64 180 2.0 2.0 0.00 0.00 0.00 58 1017.7
20260906160819 63 310 2.0 2.0 0.00 0.00 0.00 60 1017.6
20260906160313 63 161 2.0 3.0 0.00 0.00 0.00 60 1017.7
20260906155811 63 240 1.0 2.0 0.00 0.00 0.00 60 1017.7
20260906155307 62 174 2.0 2.0 0.00 0.00 0.00 61 1017.7
20260906154802 62 315 2.0 3.0 0.00 0.00 0.00 62 1017.9
20260906154256 61 273 0.0 1.0 0.00 0.00 0.00 63 1017.8
20260906153755 60 156 1.0 3.0 0.00 0.00 0.00 64 1018.0
20260906153249 60 133 1.0 2.0 0.00 0.00 0.00 65 1018.3
20260906152745 60 155 2.0 2.0 0.00 0.00 0.00 64 1017.9
20260906152245 59 249 1.0 2.0 0.00 0.00 0.00 67 1018.0
20260906151744 58 158 0.0 1.0 0.00 0.00 0.00 67 1018.0
20260906151240 58 161 2.0 3.0 0.00 0.00 0.00 68 1018.2
20260906150735 58 287 2.0 3.0 0.00 0.00 0.00 68 1018.2
20260906150231 57 178 2.0 3.0 0.00 0.00 0.00 68 1018.3
20260906145729 57 163 2.0 2.0 0.00 0.00 0.00 69 1018.5
20260906145228 57 292 0.0 3.0 0.00 0.00 0.00 69 1018.4
20260906144724 57 163 2.0 3.0 0.00 0.00 0.00 71 1018.3
20260906144219 56 210 1.0 2.0 0.00 0.00 0.00 73 1018.3
20260906143718 56 190 0.0 4.0 0.00 0.00 0.00 73 1018.3
20260906143216 56 168 2.0 3.0 0.00 0.00 0.00 74 1018.5
20260906142715 55 213 2.0 3.0 0.00 0.00 0.00 75 1018.2
20260906142211 55 222 0.0 2.0 0.00 0.00 0.00 75 1018.6
20260906141709 55 164 1.0 3.0 0.00 0.00 0.00 74 1018.2
20260906141204 56 170 0.0 1.0 0.00 0.00 0.00 72 1018.4
20260906140703 56 162 0.0 2.0 0.00 0.00 0.00 72 1018.3
20260906140158 55 156 0.0 1.0 0.00 0.00 0.00 72 1018.2
20260906135655 55 143 1.0 2.0 0.00 0.00 0.00 72 1018.5
20260906135151 55 153 0.0 1.0 0.00 0.00 0.00 74 1018.5
20260906134647 54 141 1.0 3.0 0.00 0.00 0.00 75 1018.4
20260906134141 53 164 1.0 2.0 0.00 0.00 0.00 77 1018.5
20260906133637 53 180 1.0 2.0 0.00 0.00 0.00 78 1018.5
20260906133137 52 199 2.0 2.0 0.00 0.00 0.00 80 1018.2
20260906132633 51 141 1.0 1.0 0.00 0.00 0.00 81 1018.2
20260906132128 51 139 1.0 2.0 0.00 0.00 0.00 82 1018.2
20260906131624 51 155 0.0 1.0 0.00 0.00 0.00 81 1018.0
20260906131119 51 144 2.0 3.0 0.00 0.00 0.00 82 1018.2
20260906130614 51 151 1.0 2.0 0.00 0.00 0.00 82 1017.9
20260906130109 51 140 1.0 2.0 0.00 0.00 0.00 82 1017.9
20260906125607 52 156 1.0 1.0 0.00 0.00 0.00 82 1018.0
20260906125106 51 185 2.0 3.0 0.00 0.00 0.00 82 1018.0
20260906124601 52 169 1.0 4.0 0.00 0.00 0.00 82 1018.0
20260906124056 52 141 0.0 1.0 0.00 0.00 0.00 82 1018.0
20260906123555 52 133 0.0 1.0 0.00 0.00 0.00 82 1017.8
20260906123051 52 132 0.0 1.0 0.00 0.00 0.00 82 1017.7
20260906122550 52 132 1.0 1.0 0.00 0.00 0.00 81 1017.8
20260906122046 52 131 1.0 1.0 0.00 0.00 0.00 81 1017.8
20260906121542 52 131 0.0 0.0 0.00 0.00 0.00 80 1017.7
20260906121039 53 147 0.0 1.0 0.00 0.00 0.00 80 1017.7
20260906120533 52 160 0.0 1.0 0.00 0.00 0.00 80 1017.4
20260906120031 52 236 1.0 1.0 0.00 0.00 0.00 80 1017.5
20260906115531 51 142 1.0 2.0 0.00 0.00 0.00 80 1017.4
20260906115026 51 137 1.0 1.0 0.00 0.00 0.00 80 1017.5
20260906114526 52 105 1.0 1.0 0.00 0.00 0.00 79 1017.0
20260906114022 52 117 0.0 0.0 0.00 0.00 0.00 79 1017.1
20260906113520 52 146 1.0 2.0 0.00 0.00 0.00 79 1017.1
20260906113016 52 344 0.0 0.0 0.00 0.00 0.00 79 1016.9
20260906112510 52 321 1.0 2.0 0.00 0.00 0.00 79 1016.8
20260906112007 52 289 0.0 0.0 0.00 0.00 0.00 79 1016.7
20260906111506 52 274 1.0 1.0 0.00 0.00 0.00 78 1016.3
20260906111002 52 306 4.0 6.0 0.00 0.00 0.00 79 1016.3
20260906110456 51 289 1.0 1.0 0.00 0.00 0.00 79 1016.4
20260906105955 51 308 0.0 2.0 0.00 0.00 0.00 79 1015.9
20260906105451 51 291 1.0 1.0 0.00 0.00 0.00 79 1016.0
20260906104947 51 289 0.0 1.0 0.00 0.00 0.00 79 1016.1
20260906104446 51 288 0.0 0.0 0.00 0.00 0.00 79 1015.8
20260906103945 51 288 0.0 1.0 0.00 0.00 0.00 78 1015.5
20260906103443 51 310 1.0 2.0 0.00 0.00 0.00 78 1015.4
20260906102938 51 305 0.0 1.0 0.00 0.00 0.00 78 1015.2
20260906102438 51 305 1.0 1.0 0.00 0.00 0.00 79 1015.0
20260906101933 51 291 1.0 2.0 0.00 0.00 0.00 79 1015.3
20260906101428 51 262 0.0 2.0 0.00 0.00 0.00 79 1015.1
20260906100924 50 325 0.0 1.0 0.00 0.00 0.00 79 1015.0
20260906100424 50 355 0.0 1.0 0.00 0.00 0.00 80 1014.8
20260906095918 50 356 0.0 1.0 0.00 0.00 0.00 80 1015.2
20260906095414 51 356 0.0 0.0 0.00 0.00 0.00 78 1015.0
20260906094914 51 357 0.0 0.0 0.00 0.00 0.00 78 1015.0
20260906094409 51 356 0.0 0.0 0.00 0.00 0.00 77 1014.8
20260906093905 52 357 0.0 0.0 0.00 0.00 0.00 76 1015.1
20260906093401 52 357 0.0 0.0 0.00 0.00 0.00 75 1015.0
20260906092901 53 357 0.0 1.0 0.00 0.00 0.00 75 1015.1
20260906092400 53 347 1.0 1.0 0.00 0.00 0.00 74 1014.8
20260906091856 53 294 0.0 1.0 0.00 0.00 0.00 74 1015.2
20260906091352 52 255 0.0 1.0 0.00 0.00 0.00 74 1015.2
20260906090848 52 344 0.0 0.0 0.00 0.00 0.00 75 1015.1
20260906090347 52 344 0.0 0.0 0.00 0.00 0.00 75 1015.3
20260906085842 52 335 0.0 1.0 0.00 0.00 0.00 75 1015.3
20260906085336 53 12 0.0 0.0 0.00 0.00 0.00 74 1015.6
20260906084831 52 11 0.0 1.0 0.00 0.00 0.00 74 1015.5
20260906084330 53 12 0.0 0.0 0.00 0.00 0.00 74 1015.4
20260906083825 53 12 0.0 0.0 0.00 0.00 0.00 73 1015.4
20260906083321 53 12 0.0 0.0 0.00 0.00 0.00 71 1015.5
20260906082820 54 12 0.0 0.0 0.00 0.00 0.00 71 1015.4
20260906082315 54 13 0.0 0.0 0.00 0.00 0.00 68 1015.4
20260906081811 55 13 0.0 0.0 0.00 0.00 0.00 67 1015.5
20260906081307 56 13 0.0 1.0 0.00 0.00 0.00 66 1015.5
20260906080803 56 306 2.0 2.0 0.00 0.00 0.00 65 1015.6
20260906080259 56 252 2.0 3.0 0.00 0.00 0.00 64 1015.8
20260906075758 56 269 2.0 2.0 0.00 0.00 0.00 64 1015.6
20260906075253 57 275 3.0 3.0 0.00 0.00 0.00 64 1015.4
20260906074748 56 283 2.0 3.0 0.00 0.00 0.00 65 1016.0
20260906074248 56 253 0.0 3.0 0.00 0.00 0.00 64 1016.0
20260906073747 57 237 1.0 3.0 0.00 0.00 0.00 64 1015.9
20260906073242 56 261 1.0 6.0 0.00 0.00 0.00 64 1016.0
20260906072738 57 272 2.0 2.0 0.00 0.00 0.00 64 1015.9
20260906072234 57 285 1.0 2.0 0.00 0.00 0.00 64 1016.1
20260906071729 57 273 1.0 3.0 0.00 0.00 0.00 63 1015.8
20260906071229 57 304 2.0 3.0 0.00 0.00 0.00 63 1015.9
20260906070726 58 263 2.0 2.0 0.00 0.00 0.00 62 1015.6
20260906070221 58 270 1.0 2.0 0.00 0.00 0.00 61 1015.8
20260906065721 58 274 3.0 4.0 0.00 0.00 0.00 61 1015.5
20260906065216 59 275 1.0 2.0 0.00 0.00 0.00 60 1015.9
20260906064712 59 277 4.0 6.0 0.00 0.00 0.00 59 1015.5
20260906064207 59 311 2.0 3.0 0.00 0.00 0.00 59 1016.0
20260906063702 59 284 2.0 7.0 0.00 0.00 0.00 59 1015.8
20260906063158 59 257 2.0 6.0 0.00 0.00 0.00 59 1015.8
20260906062653 59 278 1.0 4.0 0.00 0.00 0.00 59 1015.6
20260906062152 59 278 3.0 3.0 0.00 0.00 0.00 58 1015.6
20260906061648 59 270 2.0 4.0 0.00 0.00 0.00 58 1015.9
20260906061149 60 274 2.0 2.0 0.00 0.00 0.00 58 1016.0
20260906060645 60 269 2.0 4.0 0.00 0.00 0.00 57 1015.9
20260906060142 60 300 5.0 7.0 0.00 0.00 0.00 57 1015.8
20260906055637 60 295 2.0 4.0 0.00 0.00 0.00 56 1015.6
20260906055132 61 282 2.0 6.0 0.00 0.00 0.00 54 1016.1
20260906054627 61 300 3.0 6.0 0.00 0.00 0.00 53 1015.9
20260906054123 61 316 3.0 8.0 0.00 0.00 0.00 51 1015.6
20260906053619 62 320 4.0 6.0 0.00 0.00 0.00 50 1015.8
20260906053114 62 295 1.0 3.0 0.00 0.00 0.00 50 1015.8
20260906052610 61 310 3.0 4.0 0.00 0.00 0.00 51 1015.6
20260906052107 61 311 2.0 4.0 0.00 0.00 0.00 53 1015.8
20260906051602 60 322 3.0 4.0 0.00 0.00 0.00 54 1015.6
20260906051057 60 320 1.0 1.0 0.00 0.00 0.00 55 1015.8
20260906050552 61 320 0.0 2.0 0.00 0.00 0.00 55 1015.8
20260906050047 61 57 1.0 1.0 0.00 0.00 0.00 56 1015.6
20260906045545 61 57 0.0 1.0 0.00 0.00 0.00 55 1015.8
20260906045041 61 50 0.0 1.0 0.00 0.00 0.00 54 1015.6
20260906044537 61 342 1.0 1.0 0.00 0.00 0.00 55 1015.4
20260906044032 61 318 1.0 1.0 0.00 0.00 0.00 55 1015.9
20260906043528 61 330 0.0 1.0 0.00 0.00 0.00 56 1015.5
20260906043024 61 271 0.0 0.0 0.00 0.00 0.00 54 1015.5
20260906042522 61 271 0.0 0.0 0.00 0.00 0.00 56 1015.4
20260906042017 61 271 0.0 1.0 0.00 0.00 0.00 56 1015.5
20260906041514 62 305 0.0 0.0 0.00 0.00 0.00 57 1015.4
20260906041013 62 305 0.0 0.0 0.00 0.00 0.00 56 1015.5
20260906040508 62 305 0.0 1.0 0.00 0.00 0.00 56 1015.4
20260906040004 63 258 0.0 1.0 0.00 0.00 0.00 55 1015.6
20260906035459 63 256 1.0 1.0 0.00 0.00 0.00 54 1015.4
20260906034954 64 220 0.0 0.0 0.00 0.00 0.00 52 1015.4
20260906034454 64 221 0.0 1.0 0.00 0.00 0.00 52 1015.6
20260906033950 64 220 0.0 0.0 0.00 0.00 0.00 52 1015.2
20260906033444 65 221 1.0 1.0 0.00 0.00 0.00 51 1015.5
20260906032940 65 221 1.0 2.0 0.00 0.00 0.00 50 1015.4
20260906032437 65 350 0.0 0.0 0.00 0.00 0.00 51 1015.5
20260906031936 66 49 1.0 1.0 0.00 0.00 0.00 50 1015.3
20260906031432 67 319 1.0 3.0 0.00 0.00 0.00 48 1015.2
20260906030927 67 287 1.0 2.0 0.00 0.00 0.00 45 1015.3
20260906030422 67 233 0.0 0.0 0.00 0.00 0.00 44 1015.1
20260906025916 66 158 0.0 0.0 0.00 0.00 0.00 45 1014.7
20260906025411 67 158 0.0 1.0 0.00 0.00 0.00 50 1014.8
20260906024909 67 154 0.0 1.0 0.00 0.00 0.00 50 1014.5
20260906024409 67 141 0.0 1.0 0.00 0.00 0.00 51 1014.6
20260906023904 66 196 1.0 3.0 0.00 0.00 0.00 53 1014.6
20260906023401 66 132 0.0 1.0 0.00 0.00 0.00 54 1014.7
20260906022900 66 240 0.0 1.0 0.00 0.00 0.00 54 1014.6
20260906022355 67 240 0.0 0.0 0.00 0.00 0.00 53 1014.7
20260906021851 67 240 0.0 0.0 0.00 0.00 0.00 52 1014.6
20260906021350 67 241 1.0 1.0 0.00 0.00 0.00 53 1014.7
20260906020845 68 241 0.0 0.0 0.00 0.00 0.00 52 1014.6
20260906020345 68 241 0.0 0.0 0.00 0.00 0.00 50 1014.6
20260906015839 69 241 0.0 0.0 0.00 0.00 0.00 50 1014.6
20260906015339 70 241 0.0 0.0 0.00 0.00 0.00 48 1014.5
20260906014839 71 241 0.0 0.0 0.00 0.00 0.00 47 1014.5
20260906014333 72 241 0.0 0.0 0.00 0.00 0.00 45 1014.4
20260906013830 74 241 0.0 0.0 0.00 0.00 0.00 43 1014.8
20260906013325 75 241 0.0 1.0 0.00 0.00 0.00 40 1014.6
20260906012821 77 258 0.0 1.0 0.00 0.00 0.00 39 1014.5
20260906012321 78 236 0.0 1.0 0.00 0.00 0.00 37 1014.5
20260906011815 77 205 0.0 0.0 0.00 0.00 0.00 37 1015.0
20260906011315 77 205 0.0 0.0 0.00 0.00 0.00 37 1014.7
20260906010812 79 304 0.0 2.0 0.00 0.00 0.00 36 1014.7
20260906010308 78 268 0.0 0.0 0.00 0.00 0.00 35 1014.7
20260906005802 78 268 1.0 1.0 0.00 0.00 0.00 35 1014.4
20260906005301 78 266 0.0 2.0 0.00 0.00 0.00 36 1014.6
20260906004800 78 302 3.0 4.0 0.00 0.00 0.00 34 1014.6
20260906004255 78 270 2.0 3.0 0.00 0.00 0.00 34 1014.5
20260906003756 77 304 1.0 3.0 0.00 0.00 0.00 37 1014.5
20260906003251 76 303 1.0 2.0 0.00 0.00 0.00 38 1014.5
20260906002747 75 276 1.0 2.0 0.00 0.00 0.00 38 1014.5
20260906002246 75 297 1.0 2.0 0.00 0.00 0.00 40 1014.6
20260906001742 76 305 1.0 3.0 0.00 0.00 0.00 38 1014.6
20260906001237 76 296 3.0 3.0 0.00 0.00 0.00 38 1014.6
20260906000732 77 300 0.0 2.0 0.00 0.00 0.00 36 1014.8
20260906000234 79 294 1.0 2.0 0.00 0.00 0.00 34 1014.5
20260905235727 78 302 0.0 1.0 0.00 0.00 0.00 33 1014.7
20260905235227 78 320 2.0 2.0 0.00 0.00 0.00 33 1014.6
20260905234723 79 324 1.0 2.0 0.00 0.00 0.00 33 1014.8
20260905234218 78 299 0.0 1.0 0.00 0.00 0.00 34 1014.6
20260905233713 78 324 1.0 2.0 0.00 0.00 0.00 34 1014.5
20260905233212 78 294 0.0 1.0 0.00 0.00 0.00 32 1014.5
20260905232707 79 70 0.0 1.0 0.00 0.00 0.00 32 1014.8
20260905232203 79 1 0.0 3.0 0.00 0.00 0.00 32 1014.7
20260905231658 79 0 1.0 1.0 0.00 0.00 0.00 31 1014.7
20260905231154 78 326 2.0 2.0 0.00 0.00 0.00 32 1014.8
20260905230650 78 303 2.0 3.0 0.00 0.00 0.00 32 1014.6
20260905230148 78 332 3.0 3.0 0.00 0.00 0.00 33 1014.7
20260905225647 79 328 0.0 1.0 0.00 0.00 0.00 33 1014.8
20260905225142 79 308 2.0 2.0 0.00 0.00 0.00 33 1014.7